This is the latest recevied weather packets stored in our database for station/object K7CTM. If no packets are shown the sender has not sent any weather packets the latest 10 day(s).
| Time | Temp. | Humidity | Pressure | Rain* | Wind** | Luminosity | Snow |
|---|---|---|---|---|---|---|---|
| 1778103809 | 18.33° C | 25% | 1021.4 hPa | 0 mm | - | 667 W/m² | - |
| 1778103508 | 17.78° C | 24% | 1021.6 hPa | 0 mm | - | 682 W/m² | - |
| 1778103204 | 17.78° C | 23% | 1021.8 hPa | 0 mm | - | 688 W/m² | - |
| 1778102902 | 17.78° C | 24% | 1021.6 hPa | 0 mm | - | 690 W/m² | - |
| 1778102597 | 17.22° C | 24% | 1021.8 hPa | 0 mm | - | 703 W/m² | - |
| 1778102292 | 17.78° C | 24% | 1021.9 hPa | 0 mm | - | 712 W/m² | - |
| 1778101989 | 16.67° C | 23% | 1022 hPa | 0 mm | - | 721 W/m² | - |
| 1778101687 | 17.22° C | 24% | 1022 hPa | 0 mm | - | 729 W/m² | - |
| 1778101383 | 17.22° C | 23% | 1022.1 hPa | 0 mm | - | 739 W/m² | - |
| 1778101080 | 17.78° C | 25% | 1022 hPa | 0 mm | - | 747 W/m² | - |
| 1778100776 | 16.67° C | 24% | 1022 hPa | 0 mm | - | 755 W/m² | - |
| 1778100472 | 17.22° C | 25% | 1022.2 hPa | 0 mm | - | 762 W/m² | - |
| 1778100170 | 16.67° C | 23% | 1022.2 hPa | 0 mm | - | 769 W/m² | - |
| 1778099868 | 16.67° C | 27% | 1022.3 hPa | 0 mm | - | 779 W/m² | - |
| 1778099565 | 16.67° C | 25% | 1022.3 hPa | 0 mm | - | 792 W/m² | - |
| 1778099262 | 15.56° C | 24% | 1022.5 hPa | 0 mm | - | 813 W/m² | - |
| 1778098959 | 16.11° C | 27% | 1022.5 hPa | 0 mm | - | 816 W/m² | - |
| 1778098656 | 15.56° C | 26% | 1022.7 hPa | 0 mm | - | 885 W/m² | - |
| 1778098352 | 16.11° C | 26% | 1022.7 hPa | 0 mm | - | 840 W/m² | - |
| 1778098049 | 15° C | 26% | 1022.9 hPa | 0 mm | - | 904 W/m² | - |
| 1778097746 | 15° C | 26% | 1022.8 hPa | 0 mm | - | 680 W/m² | - |
| 1778097442 | 15.56° C | 25% | 1023.2 hPa | 0 mm | - | 768 W/m² | - |
| 1778097138 | 14.44° C | 28% | 1023.1 hPa | 0 mm | - | 595 W/m² | - |
| 1778096830 | 15° C | 28% | 1023.2 hPa | 0 mm | - | 580 W/m² | - |
| 1778096527 | 15° C | 26% | 1023.1 hPa | 0 mm | - | 847 W/m² | - |
* Rain latest hour (hover to see other rain measurements)
** Current wind speed in m/s (hover to see current wind gust speed)